2021/03/19 23:20:03+0000,-42.10,-49.62,-32.32,-53.23,-54.96,-54.58
2021/03/19 23:21:02+0000,-42.05,-49.47,-32.45,-48.76,-55.36,-54.40
2021/03/19 23:21:54+0000,-41.94,-48.76,-32.50,-50.21,-54.38,-54.29
2021/03/19 23:22:46+0000,-41.90,-48.62,-32.72,-51.20,-54.94,-53.86
2021/03/19 23:23:38+0000,-42.89,-48.39,-32.46,-50.08,-54.81,-54.26
2021/03/19 23:24:30+0000,-41.17,-49.16,-32.17,-49.93,-55.38,-54.46
2021/03/19 23:25:22+0000,-42.68,-48.98,-32.90,-50.50,-54.64,-53.52
2021/03/19 23:26:14+0000,-41.85,-49.28,-32.59,-50.18,-54.71,-53.47
2021/03/19 23:27:06+0000,-41.84,-49.91,-32.96,-51.51,-55.01,-54.14
2021/03/19 23:27:58+0000,-41.38,-49.50,-32.69,-48.51,-54.62,-54.13
2021/03/19 23:28:50+0000,-42.03,-49.14,-32.47,-52.58,-54.81,-54.18
2021/03/19 23:29:43+0000,-41.05,-48.18,-32.62,-49.14,-54.69,-54.47
2021/03/19 23:30:35+0000,-41.65,-49.61,-32.76,-52.91,-54.23,-53.92
2021/03/19 23:31:35+0000,-41.76,-49.77,-32.69,-52.90,-55.07,-53.94
2021/03/19 23:32:27+0000,-40.15,-50.13,-32.99,-49.35,-55.02,-54.26
2021/03/19 23:33:19+0000,-40.49,-48.42,-32.94,-52.91,-54.72,-54.10
2021/03/19 23:34:11+0000,-40.56,-48.68,-33.08,-50.13,-54.94,-54.01
2021/03/19 23:35:03+0000,-41.25,-49.13,-32.16,-46.52,-54.20,-54.09
2021/03/19 23:35:55+0000,-41.17,-49.84,-32.22,-47.69,-54.95,-54.20
2021/03/19 23:36:47+0000,-40.84,-47.81,-32.76,-50.44,-55.04,-53.71
2021/03/19 23:37:39+0000,-41.30,-48.40,-32.52,-49.83,-55.05,-53.44
2021/03/19 23:38:31+0000,-41.57,-48.99,-32.48,-48.38,-54.82,-53.97
2021/03/19 23:39:23+0000,-41.57,-49.66,-32.14,-48.87,-54.76,-54.04
2021/03/19 23:40:15+0000,-39.60,-48.46,-32.66,-48.72,-55.20,-54.03
2021/03/19 23:41:15+0000,-41.13,-48.39,-32.31,-49.87,-54.42,-53.69
2021/03/19 23:42:07+0000,-40.80,-49.27,-31.49,-48.68,-54.66,-54.56
2021/03/19 23:42:59+0000,-40.54,-49.76,-32.16,-50.20,-54.70,-54.56
2021/03/19 23:43:51+0000,-41.22,-49.19,-32.55,-51.01,-54.96,-53.69
2021/03/19 23:44:43+0000,-41.22,-48.26,-32.75,-49.47,-54.18,-54.34
2021/03/19 23:45:35+0000,-40.66,-49.14,-31.58,-52.54,-54.41,-53.96
2021/03/19 23:46:27+0000,-41.18,-48.49,-32.99,-50.13,-55.22,-54.30
2021/03/19 23:47:19+0000,-41.26,-48.97,-32.73,-52.98,-54.87,-54.00
2021/03/19 23:48:11+0000,-41.11,-48.61,-32.15,-50.97,-54.95,-53.67
2021/03/19 23:49:03+0000,-41.04,-48.24,-32.52,-48.08,-55.12,-54.33
2021/03/19 23:49:56+0000,-40.54,-49.00,-32.68,-49.15,-54.94,-54.03
2021/03/19 23:50:48+0000,-40.49,-47.34,-32.20,-51.00,-54.46,-53.85
2021/03/19 23:51:47+0000,-40.04,-48.88,-32.62,-49.48,-54.91,-53.81
2021/03/19 23:52:39+0000,-40.83,-48.21,-31.38,-49.85,-54.38,-54.29
2021/03/19 23:53:31+0000,-41.36,-48.08,-31.82,-48.17,-54.69,-54.76
2021/03/19 23:54:24+0000,-40.99,-49.28,-32.03,-49.50,-54.76,-53.76
2021/03/19 23:55:16+0000,-40.42,-48.51,-32.94,-48.99,-54.77,-54.36
2021/03/19 23:56:08+0000,-40.74,-49.20,-32.52,-49.11,-54.61,-53.92
2021/03/19 23:57:00+0000,-40.79,-49.66,-32.08,-49.89,-53.89,-54.68
2021/03/19 23:57:52+0000,-41.19,-49.34,-32.40,-50.98,-54.57,-54.34
2021/03/19 23:58:44+0000,-41.24,-47.58,-33.03,-46.84,-54.10,-54.42
2021/03/19 23:59:36+0000,-41.07,-49.65,-32.30,-50.63,-54.71,-53.52
2021/03/20 00:00:28+0000,-39.94,-48.78,-32.30,-50.92,-54.83,-54.18
2021/03/20 00:01:32+0000,-40.32,-48.70,-33.40,-50.54,-54.31,-54.03
2021/03/20 00:02:24+0000,-40.81,-49.30,-32.29,-51.29,-54.30,-54.32
2021/03/20 00:03:16+0000,-39.96,-47.72,-32.44,-48.48,-54.36,-54.15
2021/03/20 00:04:08+0000,-41.50,-48.04,-33.31,-49.30,-54.99,-54.03
2021/03/20 00:05:00+0000,-40.94,-48.96,-32.46,-50.62,-54.32,-54.70
2021/03/20 00:05:52+0000,-42.10,-49.11,-32.29,-49.61,-53.96,-54.22
2021/03/20 00:06:44+0000,-41.50,-47.23,-31.94,-50.32,-54.46,-53.93
2021/03/20 00:07:36+0000,-41.94,-48.63,-32.46,-48.22,-54.55,-54.76
2021/03/20 00:08:28+0000,-40.64,-48.90,-32.52,-50.06,-54.43,-54.47
2021/03/20 00:09:20+0000,-41.14,-49.12,-32.46,-50.42,-54.56,-54.60
2021/03/20 00:10:12+0000,-41.19,-48.13,-32.24,-48.78,-54.76,-54.96
2021/03/20 00:11:12+0000,-41.13,-48.36,-32.57,-49.43,-55.13,-54.67
2021/03/20 00:12:04+0000,-41.25,-48.86,-32.35,-53.68,-54.31,-55.03
2021/03/20 00:12:56+0000,-41.15,-49.14,-32.81,-52.08,-53.32,-54.99
2021/03/20 00:13:48+0000,-39.95,-47.37,-32.50,-53.55,-54.89,-55.26
2021/03/20 00:14:40+0000,-40.69,-48.33,-32.71,-50.44,-54.96,-55.63
2021/03/20 00:15:32+0000,-39.83,-49.40,-32.65,-52.96,-55.15,-55.17
2021/03/20 00:16:24+0000,-39.85,-48.28,-32.54,-51.15,-54.59,-55.18
2021/03/20 00:17:16+0000,-39.64,-47.36,-32.40,-50.81,-54.78,-55.35
2021/03/20 00:18:09+0000,-40.77,-47.70,-32.84,-51.75,-54.27,-55.33
2021/03/20 00:19:01+0000,-39.75,-48.24,-31.89,-51.36,-54.72,-54.94
2021/03/20 00:19:53+0000,-40.01,-48.11,-32.72,-51.90,-54.50,-56.17
2021/03/20 00:20:45+0000,-40.88,-47.75,-33.03,-48.87,-55.07,-55.07
2021/03/20 00:21:44+0000,-40.76,-47.74,-31.96,-50.00,-54.86,-55.37
2021/03/20 00:22:36+0000,-40.48,-50.00,-32.67,-49.77,-55.16,-55.07
2021/03/20 00:23:29+0000,-40.44,-49.11,-32.54,-52.26,-55.54,-56.09
2021/03/20 00:24:21+0000,-40.33,-48.71,-33.21,-52.58,-55.52,-55.33
2021/03/20 00:25:13+0000,-40.01,-47.39,-32.75,-48.93,-54.82,-54.98
2021/03/20 00:26:05+0000,-40.41,-49.01,-33.02,-53.71,-55.40,-55.27
2021/03/20 00:26:57+0000,-40.52,-49.35,-33.74,-51.89,-54.73,-54.89
2021/03/20 00:27:49+0000,-40.52,-48.17,-33.46,-53.89,-54.98,-55.24
2021/03/20 00:28:41+0000,-40.47,-48.60,-34.25,-49.96,-55.48,-54.61
2021/03/20 00:29:33+0000,-39.80,-47.86,-33.38,-50.50,-55.39,-55.38
2021/03/20 00:30:25+0000,-40.36,-49.90,-33.61,-49.62,-54.99,-54.81
2021/03/20 00:31:25+0000,-40.37,-48.87,-33.64,-51.93,-55.54,-55.25
2021/03/20 00:32:17+0000,-40.62,-47.90,-34.18,-49.00,-55.28,-55.26
2021/03/20 00:33:09+0000,-38.12,-48.37,-33.99,-48.63,-55.41,-54.83
2021/03/20 00:34:01+0000,-36.67,-47.69,-34.19,-48.77,-55.54,-55.43
2021/03/20 00:34:53+0000,-40.51,-48.50,-33.86,-50.69,-55.01,-55.09
2021/03/20 00:35:46+0000,-40.60,-46.98,-33.91,-50.14,-55.27,-55.09
2021/03/20 00:36:38+0000,-39.13,-48.78,-33.32,-49.58,-55.55,-55.33
2021/03/20 00:37:30+0000,-39.94,-49.08,-34.03,-49.01,-53.91,-55.32
2021/03/20 00:38:22+0000,-40.35,-50.16,-33.48,-49.65,-27.34,-55.75
2021/03/20 00:39:14+0000,-40.99,-47.69,-33.79,-51.55,-55.02,-55.89
2021/03/20 00:40:06+0000,-40.87,-50.52,-33.85,-50.34,-55.34,-55.63
2021/03/20 00:41:06+0000,-39.83,-50.35,-33.10,-50.63,-55.45,-55.63
2021/03/20 00:41:58+0000,-41.76,-50.59,-34.30,-48.21,-55.59,-55.73
2021/03/20 00:42:50+0000,-40.77,-48.24,-33.18,-53.41,-55.06,-56.37
2021/03/20 00:43:42+0000,-41.00,-48.19,-34.20,-49.28,-54.79,-55.69
2021/03/20 00:44:34+0000,-41.19,-49.19,-33.29,-53.81,-55.66,-55.56
2021/03/20 00:45:26+0000,-40.94,-49.93,-33.68,-49.94,-54.54,-55.63
2021/03/20 00:46:18+0000,-40.26,-47.69,-33.02,-49.82,-54.86,-55.56
2021/03/20 00:47:10+0000,-39.86,-47.99,-33.90,-48.98,-55.16,-55.94
2021/03/20 00:48:02+0000,-40.53,-49.02,-33.40,-50.05,-54.96,-56.30
2021/03/20 00:48:54+0000,-42.28,-48.79,-33.46,-50.73,-27.04,-56.29
2021/03/20 00:49:47+0000,-43.20,-46.94,-33.84,-50.64,-55.64,-56.08
2021/03/20 00:50:39+0000,-42.12,-48.07,-33.59,-50.74,-55.07,-56.40
2021/03/20 00:51:39+0000,-42.35,-47.40,-33.70,-49.74,-55.13,-55.73
2021/03/20 00:52:31+0000,-41.21,-49.01,-33.31,-51.77,-55.13,-56.14
2021/03/20 00:53:23+0000,-40.76,-49.96,-33.69,-50.92,-55.48,-56.27
2021/03/20 00:54:15+0000,-42.03,-46.99,-33.91,-51.74,-54.97,-55.87
2021/03/20 00:55:07+0000,-41.56,-50.70,-33.03,-51.97,-55.40,-55.97
2021/03/20 00:55:59+0000,-41.49,-49.80,-33.91,-51.80,-55.34,-56.14
2021/03/20 00:56:51+0000,-41.94,-51.21,-33.98,-51.13,-54.97,-56.03
2021/03/20 00:57:43+0000,-42.31,-46.55,-33.98,-49.38,-55.00,-55.71
2021/03/20 00:58:35+0000,-40.04,-48.86,-34.12,-53.09,-55.56,-56.00
2021/03/20 00:59:27+0000,-39.77,-48.54,-33.96,-51.18,-55.22,-55.29
2021/03/20 01:00:19+0000,-40.94,-47.12,-33.79,-52.11,-54.94,-56.68
2021/03/20 01:01:20+0000,-41.04,-50.53,-33.47,-51.82,-55.23,-55.74
2021/03/20 01:02:12+0000,-27.52,-47.44,-33.84,-51.40,-55.06,-55.49
2021/03/20 01:03:04+0000,-40.84,-48.65,-33.62,-51.89,-55.17,-55.56
2021/03/20 01:03:56+0000,-38.86,-49.43,-34.14,-47.62,-55.17,-55.83
2021/03/20 01:04:48+0000,-34.79,-46.30,-33.57,-48.14,-54.79,-55.01
2021/03/20 01:05:40+0000,-29.17,-45.64,-32.93,-46.50,-54.18,-55.37
2021/03/20 01:06:32+0000,-31.99,-46.11,-32.73,-45.09,-54.51,-56.15
2021/03/20 01:07:24+0000,-30.96,-46.68,-32.81,-48.77,-54.55,-55.66
2021/03/20 01:08:16+0000,-39.59,-45.13,-32.97,-51.14,-55.01,-55.30
2021/03/20 01:09:08+0000,-12.29,-46.40,-33.07,-51.11,-53.99,-56.15
2021/03/20 01:10:00+0000,-41.83,-48.51,-33.11,-51.58,-54.36,-56.03
2021/03/20 01:11:00+0000,-41.36,-49.32,-33.05,-45.49,-53.15,-55.62
2021/03/20 01:11:52+0000,-41.24,-44.04,-32.46,-45.06,-53.50,-56.08
2021/03/20 01:12:44+0000,-34.08,-39.39,-31.85,-41.61,-54.29,-56.01
2021/03/20 01:13:36+0000,-41.32,-50.49,-33.16,-43.60,-53.85,-55.79
2021/03/20 01:14:29+0000,-41.96,-47.80,-32.58,-46.08,-53.76,-55.76
2021/03/20 01:15:21+0000,-40.60,-49.88,-33.14,-44.92,-54.16,-56.01
2021/03/20 01:16:13+0000,-41.38,-47.68,-33.43,-43.48,-53.10,-56.32
2021/03/20 01:17:05+0000,-27.77,-49.75,-31.33,-43.38,-53.87,-55.73
2021/03/20 01:17:57+0000,-28.89,-43.54,-31.58,-42.31,-53.98,-55.38
2021/03/20 01:18:49+0000,-28.83,-48.86,-33.02,-46.15,-54.08,-55.86
2021/03/20 01:19:41+0000,-42.35,-44.41,-32.63,-43.76,-53.49,-55.24
2021/03/20 01:20:33+0000,-41.19,-41.99,-32.98,-43.43,-54.14,-55.54
2021/03/20 01:21:33+0000,-41.30,-47.90,-33.75,-44.29,-54.10,-55.96
2021/03/20 01:22:25+0000,-40.83,-48.72,-32.96,-44.11,-54.93,-55.63
2021/03/20 01:23:17+0000,-41.07,-47.65,-32.99,-43.40,-54.80,-55.46
2021/03/20 01:24:09+0000,-41.66,-48.40,-33.38,-44.19,-54.93,-55.56
2021/03/20 01:25:01+0000,-39.81,-47.74,-33.20,-42.88,-54.48,-55.78
2021/03/20 01:25:53+0000,-40.53,-48.11,-33.21,-43.64,-54.57,-56.24
2021/03/20 01:26:45+0000,-39.87,-47.20,-33.57,-42.26,-54.45,-55.75
2021/03/20 01:27:37+0000,-39.30,-49.17,-33.78,-43.29,-54.35,-55.25
2021/03/20 01:28:29+0000,-39.21,-47.73,-33.26,-42.84,-54.35,-55.24
2021/03/20 01:29:21+0000,-40.26,-49.48,-33.15,-43.64,-54.24,-56.14
2021/03/20 01:30:14+0000,-38.86,-46.45,-33.92,-42.56,-55.08,-55.62
2021/03/20 01:31:14+0000,-40.26,-46.15,-33.62,-41.81,-54.65,-54.59
2021/03/20 01:32:06+0000,-40.09,-49.63,-33.17,-43.13,-54.19,-54.22
2021/03/20 01:32:58+0000,-39.91,-48.54,-33.45,-45.01,-54.81,-54.43
2021/03/20 01:33:51+0000,-39.04,-47.90,-33.39,-43.14,-54.61,-53.70
2021/03/20 01:34:43+0000,-40.91,-45.95,-33.32,-42.13,-54.29,-54.24
2021/03/20 01:35:35+0000,-40.81,-47.14,-33.51,-43.14,-54.47,-54.17
2021/03/20 01:36:27+0000,-40.57,-46.96,-33.69,-43.45,-55.19,-53.93
2021/03/20 01:37:19+0000,-42.06,-46.57,-33.13,-43.70,-54.70,-53.50
2021/03/20 01:38:11+0000,-40.97,-46.11,-33.89,-42.82,-54.55,-53.86
2021/03/20 01:39:03+0000,-42.74,-46.98,-33.98,-43.53,-54.65,-54.25
2021/03/20 01:39:55+0000,-41.42,-47.17,-33.11,-43.22,-54.10,-54.25
2021/03/20 01:40:47+0000,-41.99,-45.16,-33.24,-42.35,-55.44,-54.06
2021/03/20 01:41:45+0000,-41.94,-45.83,-33.39,-41.93,-54.40,-53.67
2021/03/20 01:42:37+0000,-41.31,-48.59,-33.71,-43.09,-54.29,-54.11
2021/03/20 01:43:29+0000,-42.36,-47.23,-33.66,-44.04,-54.10,-54.90
2021/03/20 01:44:22+0000,-41.74,-48.28,-33.23,-42.35,-54.69,-54.29
2021/03/20 01:45:14+0000,-41.61,-45.15,-34.09,-43.87,-53.96,-54.35
2021/03/20 01:46:06+0000,-40.55,-47.84,-33.64,-44.05,-54.83,-53.73
2021/03/20 01:46:58+0000,-40.76,-48.04,-33.89,-43.14,-54.49,-54.06
2021/03/20 01:47:50+0000,-42.31,-44.65,-33.54,-44.89,-54.56,-54.47
2021/03/20 01:48:42+0000,-41.77,-45.21,-33.80,-43.48,-54.67,-54.25
2021/03/20 01:49:34+0000,-41.62,-47.35,-33.91,-43.33,-54.63,-54.07
2021/03/20 01:50:26+0000,-41.33,-47.20,-34.40,-42.51,-54.90,-53.74
2021/03/20 01:51:38+0000,-41.92,-46.82,-33.72,-42.58,-54.66,-53.59
2021/03/20 01:52:30+0000,-41.30,-46.63,-33.64,-41.33,-55.08,-54.84
2021/03/20 01:53:22+0000,-41.42,-49.47,-33.48,-41.89,-55.43,-53.77
2021/03/20 01:54:14+0000,-41.10,-45.23,-33.80,-43.08,-55.29,-53.74
2021/03/20 01:55:06+0000,-40.64,-48.39,-33.56,-42.94,-55.03,-53.92
2021/03/20 01:55:59+0000,-41.31,-46.18,-33.91,-42.51,-55.16,-54.03
2021/03/20 01:56:51+0000,-42.79,-45.10,-33.47,-43.04,-54.66,-54.76
2021/03/20 01:57:43+0000,-41.64,-45.48,-33.86,-42.27,-55.22,-53.88
2021/03/20 01:58:35+0000,-42.39,-46.99,-33.36,-44.37,-55.44,-54.31
2021/03/20 01:59:27+0000,-42.22,-46.91,-33.52,-44.21,-55.42,-54.34
2021/03/20 02:00:19+0000,-41.85,-43.95,-34.37,-43.46,-55.44,-54.09
2021/03/20 02:01:22+0000,-42.22,-46.77,-33.40,-42.10,-55.05,-53.73
2021/03/20 02:02:14+0000,-41.79,-44.17,-33.71,-42.91,-55.02,-53.88
2021/03/20 02:03:06+0000,-42.46,-48.80,-33.49,-42.49,-54.96,-54.52
2021/03/20 02:03:58+0000,-42.37,-46.51,-34.23,-43.74,-55.57,-54.72
2021/03/20 02:04:50+0000,-42.68,-48.97,-33.29,-42.08,-55.31,-54.31
2021/03/20 02:05:42+0000,-42.07,-46.01,-33.89,-43.17,-54.63,-53.72
2021/03/20 02:06:34+0000,-42.71,-46.55,-34.20,-44.38,-54.94,-53.38
2021/03/20 02:07:26+0000,-42.74,-46.02,-34.10,-41.98,-54.98,-54.28
2021/03/20 02:08:18+0000,-42.51,-45.54,-33.44,-43.54,-55.86,-53.94
2021/03/20 02:09:10+0000,-42.51,-44.62,-33.88,-43.54,-55.67,-53.82
2021/03/20 02:10:03+0000,-42.33,-46.93,-34.40,-44.11,-54.83,-54.50
2021/03/20 02:11:03+0000,-42.47,-46.08,-33.17,-44.16,-55.28,-54.20
2021/03/20 02:11:55+0000,-42.39,-47.00,-33.42,-43.97,-54.83,-53.74
2021/03/20 02:12:47+0000,-41.94,-45.72,-33.40,-41.34,-55.31,-54.25
2021/03/20 02:13:39+0000,-42.28,-47.04,-34.33,-42.73,-55.42,-53.98
2021/03/20 02:14:31+0000,-42.43,-47.34,-33.84,-42.96,-55.37,-54.68
2021/03/20 02:15:23+0000,-42.09,-47.80,-33.92,-44.52,-55.36,-54.10
2021/03/20 02:16:15+0000,-43.25,-45.88,-34.59,-44.87,-55.35,-54.56
2021/03/20 02:17:07+0000,-42.11,-48.91,-33.65,-43.48,-55.93,-53.80
2021/03/20 02:17:59+0000,-43.02,-47.81,-34.14,-43.56,-55.44,-54.30
2021/03/20 02:18:51+0000,-42.53,-48.07,-33.91,-44.20,-56.04,-54.39
2021/03/20 02:19:43+0000,-43.31,-44.40,-33.54,-44.45,-55.42,-54.16
2021/03/20 02:20:35+0000,-41.30,-47.84,-34.05,-44.04,-55.74,-54.08
2021/03/20 02:21:35+0000,-41.32,-48.16,-33.57,-43.45,-56.08,-54.83
2021/03/20 02:22:27+0000,-42.32,-45.52,-33.89,-44.60,-55.08,-54.51
2021/03/20 02:23:19+0000,-42.30,-45.37,-33.57,-44.06,-54.61,-53.61
2021/03/20 02:24:11+0000,-41.35,-45.22,-34.15,-43.61,-55.37,-54.38
2021/03/20 02:25:03+0000,-41.60,-46.21,-34.03,-44.27,-55.98,-54.43
2021/03/20 02:25:55+0000,-42.93,-45.99,-33.91,-44.04,-55.36,-54.02
2021/03/20 02:26:47+0000,-38.64,-45.36,-34.05,-45.18,-55.37,-54.44
2021/03/20 02:27:39+0000,-40.91,-45.89,-33.27,-43.94,-55.32,-54.35
2021/03/20 02:28:31+0000,-42.20,-44.82,-33.96,-43.60,-55.58,-54.00
2021/03/20 02:29:23+0000,-42.10,-46.70,-33.50,-42.98,-55.24,-54.46
2021/03/20 02:30:16+0000,-41.93,-45.84,-33.53,-42.81,-55.32,-54.24
2021/03/20 02:31:15+0000,-43.51,-44.71,-34.38,-43.23,-55.61,-54.08
2021/03/20 02:32:07+0000,-40.54,-47.58,-34.44,-43.42,-53.98,-54.82
2021/03/20 02:32:59+0000,-42.11,-44.91,-34.34,-43.85,-54.51,-54.61
2021/03/20 02:33:51+0000,-39.89,-47.54,-34.29,-43.89,-55.38,-54.59
2021/03/20 02:34:43+0000,-40.27,-43.11,-33.81,-44.57,-55.00,-54.24
2021/03/20 02:35:35+0000,-39.81,-47.34,-34.08,-44.56,-54.84,-54.65
2021/03/20 02:36:27+0000,-40.84,-45.06,-33.92,-43.32,-55.42,-54.19
2021/03/20 02:37:19+0000,-40.89,-45.55,-33.86,-43.99,-55.27,-54.57
2021/03/20 02:38:11+0000,-39.91,-45.73,-33.99,-44.03,-55.52,-54.41
2021/03/20 02:39:03+0000,-40.13,-43.67,-33.69,-44.65,-55.38,-55.03
2021/03/20 02:39:56+0000,-38.64,-45.63,-33.52,-42.85,-55.59,-54.78
2021/03/20 02:40:48+0000,-38.85,-43.91,-33.90,-43.88,-55.32,-54.35
2021/03/20 02:41:48+0000,-38.67,-44.25,-33.31,-43.69,-55.40,-54.57
2021/03/20 02:42:40+0000,-36.90,-45.24,-33.85,-43.70,-55.14,-54.23
2021/03/20 02:43:32+0000,-39.45,-44.70,-33.33,-44.92,-55.10,-54.63
2021/03/20 02:44:24+0000,-40.44,-45.75,-34.03,-45.27,-55.58,-54.29
2021/03/20 02:45:16+0000,-40.19,-44.44,-33.94,-46.18,-55.77,-53.84
2021/03/20 02:46:08+0000,-37.18,-45.75,-33.98,-44.74,-55.94,-54.23
2021/03/20 02:47:00+0000,-40.45,-45.09,-33.29,-45.90,-55.32,-54.37
2021/03/20 02:47:52+0000,-40.16,-45.05,-33.46,-52.67,-55.32,-54.46
2021/03/20 02:48:45+0000,-42.57,-45.70,-34.17,-51.75,-55.21,-54.02
2021/03/20 02:49:37+0000,-39.12,-48.11,-33.70,-52.46,-55.27,-53.67
2021/03/20 02:50:29+0000,-41.57,-45.78,-33.84,-52.67,-55.78,-53.86
2021/03/20 02:51:29+0000,-41.10,-45.35,-34.10,-53.26,-55.60,-54.13
2021/03/20 02:52:21+0000,-40.45,-46.68,-33.84,-51.97,-55.42,-54.35
2021/03/20 02:53:13+0000,-38.80,-43.77,-33.27,-52.38,-55.28,-54.30
2021/03/20 02:54:05+0000,-39.28,-44.49,-33.50,-52.84,-55.64,-54.13
2021/03/20 02:54:57+0000,-40.39,-45.42,-33.82,-52.58,-55.45,-54.71
2021/03/20 02:55:49+0000,-40.68,-42.96,-33.35,-52.91,-55.77,-53.88
2021/03/20 02:56:41+0000,-39.28,-42.44,-33.79,-52.13,-55.31,-54.34
2021/03/20 02:57:33+0000,-39.93,-45.02,-33.77,-52.27,-55.53,-54.92
2021/03/20 02:58:25+0000,-40.53,-44.73,-33.48,-53.08,-55.04,-53.66
2021/03/20 02:59:17+0000,-40.87,-46.32,-33.20,-53.34,-55.96,-54.46
2021/03/20 03:00:10+0000,-39.90,-44.12,-34.04,-52.06,-55.63,-54.44
2021/03/20 03:01:11+0000,-41.16,-44.45,-33.56,-51.88,-54.07,-54.22
2021/03/20 03:02:03+0000,-40.34,-46.07,-33.30,-52.95,-55.50,-54.65
2021/03/20 03:02:55+0000,-39.34,-45.41,-33.72,-52.83,-55.01,-53.83
2021/03/20 03:03:47+0000,-38.81,-46.67,-33.65,-52.37,-55.03,-54.26
2021/03/20 03:04:39+0000,-40.54,-46.26,-33.37,-52.43,-55.57,-53.52
2021/03/20 03:05:31+0000,-39.92,-45.77,-33.44,-53.11,-55.11,-53.84
2021/03/20 03:06:23+0000,-38.07,-46.06,-33.45,-53.29,-55.59,-53.78
2021/03/20 03:07:15+0000,-41.02,-45.98,-33.75,-53.66,-56.12,-53.91
2021/03/20 03:08:07+0000,-40.42,-46.70,-33.23,-52.82,-55.05,-54.14
2021/03/20 03:08:59+0000,-41.52,-45.47,-32.97,-53.18,-55.16,-54.25
2021/03/20 03:09:52+0000,-40.49,-47.07,-33.04,-52.39,-55.54,-53.96
2021/03/20 03:10:44+0000,-40.66,-45.04,-33.25,-53.05,-55.42,-53.76
2021/03/20 03:11:47+0000,-39.72,-43.59,-33.39,-52.89,-55.89,-53.85
2021/03/20 03:12:39+0000,-39.06,-45.39,-33.34,-52.78,-55.41,-53.84
2021/03/20 03:13:31+0000,-38.21,-45.85,-33.37,-52.46,-55.35,-54.27
2021/03/20 03:14:23+0000,-39.81,-47.35,-33.51,-53.31,-55.60,-53.32
2021/03/20 03:15:15+0000,-41.04,-45.51,-33.50,-52.55,-55.66,-53.16
2021/03/20 03:16:07+0000,-40.52,-43.65,-33.26,-53.15,-55.62,-53.86
2021/03/20 03:16:59+0000,-41.77,-45.14,-33.38,-53.35,-55.46,-53.85
2021/03/20 03:17:51+0000,-40.53,-45.69,-33.43,-53.21,-55.24,-54.20
2021/03/20 03:18:43+0000,-37.76,-47.01,-32.97,-53.30,-56.00,-53.96
2021/03/20 03:19:35+0000,-38.43,-47.27,-33.01,-52.70,-55.34,-54.60
2021/03/20 03:20:28+0000,-39.67,-44.72,-33.05,-52.74,-55.44,-53.53
2021/03/20 03:21:27+0000,-39.92,-43.50,-33.67,-52.17,-55.54,-54.28
2021/03/20 03:22:19+0000,-40.96,-46.89,-33.71,-52.82,-55.46,-53.83
2021/03/20 03:23:11+0000,-38.19,-44.09,-33.42,-52.75,-55.58,-54.47
2021/03/20 03:24:03+0000,-35.28,-46.37,-32.74,-52.44,-55.86,-54.09
2021/03/20 03:24:55+0000,-39.74,-46.18,-33.25,-52.54,-55.42,-54.13
2021/03/20 03:25:47+0000,-38.82,-46.72,-33.55,-52.34,-55.91,-53.74
2021/03/20 03:26:39+0000,-35.81,-47.02,-33.23,-52.31,-55.20,-53.74
2021/03/20 03:27:31+0000,-42.16,-42.80,-32.90,-51.64,-55.55,-53.60
2021/03/20 03:28:23+0000,-38.44,-45.56,-33.27,-52.80,-55.83,-53.92
2021/03/20 03:29:15+0000,-41.70,-45.79,-33.26,-53.15,-55.39,-54.18
2021/03/20 03:30:08+0000,-37.85,-46.52,-33.12,-52.53,-55.59,-54.20
2021/03/20 03:31:08+0000,-37.54,-45.85,-33.38,-52.44,-55.37,-53.20
2021/03/20 03:32:00+0000,-41.68,-45.80,-33.15,-52.72,-55.71,-53.98
2021/03/20 03:32:52+0000,-38.10,-48.04,-32.62,-53.40,-55.82,-53.96
2021/03/20 03:33:44+0000,-41.62,-44.81,-32.90,-52.58,-55.95,-53.84
2021/03/20 03:34:36+0000,-34.73,-47.67,-33.09,-52.14,-55.96,-54.31
2021/03/20 03:35:28+0000,-39.20,-44.73,-33.22,-52.29,-55.41,-53.75
2021/03/20 03:36:20+0000,-38.14,-46.62,-32.52,-52.87,-55.67,-54.35
2021/03/20 03:37:12+0000,-41.97,-45.39,-32.65,-52.81,-55.28,-54.00
2021/03/20 03:38:04+0000,-33.05,-44.68,-33.43,-52.86,-55.58,-53.80
2021/03/20 03:38:57+0000,-32.80,-46.27,-32.86,-53.09,-55.64,-54.00
2021/03/20 03:39:49+0000,-37.53,-45.46,-32.72,-52.15,-56.02,-54.69
2021/03/20 03:40:41+0000,-39.70,-43.53,-32.72,-52.45,-55.84,-54.08
2021/03/20 03:41:41+0000,-40.99,-43.91,-33.24,-52.53,-55.93,-54.72
2021/03/20 03:42:33+0000,-40.28,-45.62,-32.96,-52.97,-56.04,-54.02
2021/03/20 03:43:25+0000,-38.51,-46.75,-32.90,-52.59,-56.02,-53.58
2021/03/20 03:44:17+0000,-36.94,-43.97,-33.70,-52.36,-55.15,-54.04
2021/03/20 03:45:09+0000,-32.67,-44.24,-33.28,-52.56,-55.96,-54.12
2021/03/20 03:46:01+0000,-42.26,-45.00,-32.97,-53.09,-55.50,-54.12
2021/03/20 03:46:53+0000,-37.44,-47.08,-33.24,-53.24,-56.16,-54.09
2021/03/20 03:47:45+0000,-41.19,-44.27,-32.98,-52.77,-56.92,-53.91
2021/03/20 03:48:38+0000,-35.76,-47.70,-33.49,-52.64,-55.96,-53.84
2021/03/20 03:49:30+0000,-41.40,-45.51,-33.30,-53.10,-55.69,-54.06
2021/03/20 03:50:23+0000,-38.30,-47.73,-33.09,-52.79,-55.93,-54.07
2021/03/20 03:51:26+0000,-35.44,-47.20,-33.81,-52.97,-56.26,-54.33
2021/03/20 03:52:18+0000,-37.23,-44.01,-33.52,-52.24,-54.62,-54.65
2021/03/20 03:53:10+0000,-38.63,-43.33,-33.30,-52.51,-55.84,-54.33
2021/03/20 03:54:02+0000,-38.75,-46.07,-33.07,-51.74,-55.92,-54.15
2021/03/20 03:54:54+0000,-34.40,-44.70,-33.09,-52.35,-55.61,-54.53
2021/03/20 03:55:46+0000,-40.87,-44.55,-33.25,-52.65,-55.17,-54.17
2021/03/20 03:56:38+0000,-40.47,-47.31,-32.92,-52.85,-55.39,-53.45
2021/03/20 03:57:30+0000,-41.85,-46.23,-32.69,-52.43,-55.77,-54.25
2021/03/20 03:58:23+0000,-38.67,-49.16,-32.95,-52.93,-55.88,-53.68
2021/03/20 03:59:15+0000,-41.90,-44.88,-33.20,-52.58,-55.54,-53.71
2021/03/20 04:00:07+0000,-42.19,-48.85,-33.11,-52.52,-55.47,-53.95
2021/03/20 04:01:07+0000,-40.08,-45.55,-33.59,-52.08,-55.87,-53.94
2021/03/20 04:01:59+0000,-42.08,-46.42,-33.88,-52.69,-55.77,-53.87
2021/03/20 04:02:51+0000,-40.13,-48.64,-33.58,-53.14,-55.68,-54.15
2021/03/20 04:03:43+0000,-41.05,-44.72,-33.00,-52.28,-55.36,-54.91
2021/03/20 04:04:35+0000,-40.83,-48.62,-32.62,-52.47,-55.60,-55.10
2021/03/20 04:05:27+0000,-34.08,-47.36,-33.09,-53.07,-55.70,-54.52
2021/03/20 04:06:19+0000,-32.22,-43.42,-33.25,-52.77,-55.55,-53.85
2021/03/20 04:07:11+0000,-39.96,-45.30,-33.39,-52.23,-55.80,-54.37
2021/03/20 04:08:03+0000,-40.91,-47.19,-33.94,-52.37,-56.10,-54.91
2021/03/20 04:08:55+0000,-27.78,-46.77,-33.40,-52.15,-55.95,-54.06
2021/03/20 04:09:48+0000,-32.98,-47.52,-33.43,-52.03,-55.97,-54.07
2021/03/20 04:10:41+0000,-40.17,-46.37,-33.43,-52.49,-56.46,-54.63
2021/03/20 04:11:40+0000,-41.22,-45.70,-32.92,-52.28,-55.74,-54.56
2021/03/20 04:12:32+0000,-41.75,-47.61,-33.09,-52.41,-55.98,-53.92
2021/03/20 04:13:24+0000,-26.53,-47.58,-32.95,-52.42,-55.83,-54.83
2021/03/20 04:14:17+0000,-38.75,-46.89,-32.74,-52.93,-55.36,-54.06
2021/03/20 04:15:09+0000,-39.60,-47.20,-32.94,-52.46,-55.55,-53.95
2021/03/20 04:16:01+0000,-41.51,-47.85,-33.12,-53.06,-55.48,-53.93
2021/03/20 04:16:53+0000,-40.96,-46.64,-32.69,-53.21,-55.92,-54.71
2021/03/20 04:17:45+0000,-42.83,-45.72,-33.07,-53.72,-56.56,-54.82
2021/03/20 04:18:37+0000,-40.41,-48.30,-33.07,-53.29,-55.32,-54.40
2021/03/20 04:19:29+0000,-41.47,-46.68,-32.74,-53.64,-55.84,-54.69
2021/03/20 04:20:21+0000,-40.15,-46.59,-33.53,-53.91,-55.47,-54.56
2021/03/20 04:21:21+0000,-40.82,-48.02,-33.02,-54.16,-56.53,-54.57
2021/03/20 04:22:13+0000,-38.73,-46.06,-33.25,-52.83,-55.63,-55.01
2021/03/20 04:23:05+0000,-39.28,-45.42,-32.70,-52.79,-55.56,-54.33
2021/03/20 04:23:57+0000,-39.97,-45.74,-33.24,-53.38,-55.70,-54.68
2021/03/20 04:24:50+0000,-40.50,-45.18,-33.85,-52.37,-55.68,-54.30
2021/03/20 04:25:42+0000,-37.04,-44.64,-33.10,-53.14,-55.49,-54.65
2021/03/20 04:26:34+0000,-38.36,-46.02,-33.61,-53.28,-56.48,-54.66
2021/03/20 04:27:26+0000,-39.71,-45.60,-33.44,-53.26,-56.00,-54.56
2021/03/20 04:28:18+0000,-39.67,-46.41,-33.47,-53.15,-55.72,-54.05
2021/03/20 04:29:10+0000,-37.79,-46.23,-33.04,-53.90,-56.23,-54.37
2021/03/20 04:30:02+0000,-36.05,-46.64,-33.52,-53.50,-56.08,-53.89
2021/03/20 04:31:03+0000,-38.14,-46.19,-32.52,-54.26,-56.04,-54.30
2021/03/20 04:31:55+0000,-39.71,-46.80,-32.76,-53.75,-55.83,-54.64
2021/03/20 04:32:47+0000,-40.16,-45.97,-33.91,-53.67,-55.96,-54.11
2021/03/20 04:33:39+0000,-39.69,-46.33,-33.19,-53.70,-55.82,-54.12
2021/03/20 04:34:31+0000,-42.96,-46.52,-33.28,-53.25,-56.19,-53.52